Starlink 4453

operational
NORAD ID: 53497 Int'l Des: 2022-099 Owner: SPXS Country: US Constellation: starlink
LEOCIRCULARRETROGRADESSO

About Starlink 4453

Description loading...

Live Position

Loading 3D Globe...

Upcoming Passes

Altitude History

Altitude vs Time

uPlot chart will show altitude changes over time

Two-Line Element Set

1 53497U 22099AJ 26061.34592426 .00001478 00000-0 11956-3 0 9995
2 53497 97.6027 183.0347 0001975 89.7657 270.3794 15.01258833194889
Epoch: Mar 2, 2026 • Age: 35 hours

Current Status

Altitude 591.7 km
Velocity 7.56 km/s
Sub-Earth Point -75.36°S, 6.75°E
Launch Date Aug 12, 2022
Age 3.5 years
Type internet

Technical Details

Classification Payload
Mass 300.00 kg
Dry Mass 275.00 kg
Total Mass 300.00 kg
Length 0.20 m
Diameter 2.80 m
Span 9.00 m
Shape Box + pan
Manufacturer SPXS
Bus Type Starlink
Phase Status In Orbit
Owner/State SPXS/US

Large Constellations

Loading constellations...